Location: Sternwarte_Laufen
(47.9344°N, 12.9346°E)
Time: 07:14:59
(UTC+02:00)

Altair - Visible Passes

Search period start: 08 June 2026 00:00
Search period end: 18 June 2026 00:00
Orbit: 1501 x 1682 km, 47.2° (Epoch: 6 June)

Date Brightness Start Highest point End Pass type
(mag) Time Alt. Az. Time Alt. Az. Time Alt. Az.
8 Jun 7.4 00:59:22 10° WSW 01:08:46 75° SSE 01:18:36 10° E visible
8 Jun 7.6 03:03:53 10° W 03:13:34 86° S 03:23:37 10° E visible
8 Jun 7.9 22:31:43 10° SSW 22:39:49 35° SE 22:48:11 10° ENE visible
9 Jun 7.4 00:34:11 10° WSW 00:43:33 73° SSE 00:53:19 10° ENE visible
9 Jun 7.5 02:38:40 10° W 02:48:18 87° S 02:58:20 10° E visible
9 Jun 8.0 22:06:49 10° SSW 22:14:42 33° SE 22:22:49 10° ENE visible
10 Jun 7.4 00:09:01 10° WSW 00:18:19 70° SSE 00:28:02 10° ENE visible
10 Jun 7.5 02:13:26 10° W 02:23:02 87° S 02:33:01 10° E visible
10 Jun 7.6 04:18:07 10° WNW 04:27:41 64° SSW 04:37:33 10° SE visible
10 Jun 8.1 21:41:57 10° S 21:49:36 30° SE 21:57:27 10° E visible
10 Jun 7.4 23:43:52 10° WSW 23:53:07 68° SSE 00:02:44 10° ENE visible
11 Jun 7.5 01:48:12 10° W 01:57:46 87° S 02:07:43 10° E visible
11 Jun 7.6 03:52:53 10° WNW 04:02:26 67° SSW 04:12:20 10° SE visible
11 Jun 7.4 23:18:44 10° SW 23:27:54 65° SSE 23:37:27 10° ENE visible
12 Jun 7.5 01:22:58 10° W 01:32:30 87° S 01:42:25 10° E visible
12 Jun 7.5 03:27:39 10° WNW 03:37:12 69° SSW 03:47:07 10° ESE visible
12 Jun 7.5 22:53:37 10° SW 23:02:43 62° SSE 23:12:10 10° ENE visible
13 Jun 7.5 00:57:45 10° W 01:07:14 87° S 01:17:07 10° E visible
13 Jun 7.5 03:02:25 10° WNW 03:11:58 72° SSW 03:21:53 10° ESE visible
13 Jun 7.5 22:28:30 10° SW 22:37:31 59° SSE 22:46:53 10° ENE visible
14 Jun 7.5 00:32:32 10° W 00:41:58 86° S 00:51:49 10° E visible
14 Jun 7.5 02:37:12 10° WNW 02:46:44 74° SSW 02:56:38 10° ESE visible
14 Jun 7.5 22:03:24 10° SW 22:12:21 56° SSE 22:21:36 10° ENE visible
15 Jun 7.5 00:07:18 10° W 00:16:43 86° S 00:26:31 10° E visible
15 Jun 7.5 02:11:58 10° W 02:21:29 76° SSW 02:31:23 10° ESE visible
15 Jun 7.9 04:16:45 10° WNW 04:25:29 40° SW 04:34:29 10° SSE visible
15 Jun 7.6 21:38:19 10° SW 21:47:10 53° SSE 21:56:18 10° ENE visible
15 Jun 7.4 23:42:06 10° WSW 23:51:28 85° S 00:01:13 10° E visible
16 Jun 7.4 01:46:45 10° W 01:56:14 78° SSW 02:06:08 10° ESE visible
16 Jun 7.9 03:51:29 10° WNW 04:00:19 42° SW 04:09:27 10° SSE visible
16 Jun 7.4 23:16:53 10° WSW 23:26:13 83° S 23:35:56 10° E visible
17 Jun 7.4 01:21:31 10° W 01:31:00 80° SSW 01:40:52 10° ESE visible
17 Jun 7.8 03:26:13 10° WNW 03:35:09 45° SW 03:44:23 10° SSE visible
17 Jun 7.5 22:51:41 10° WSW 23:00:59 82° SSE 23:10:39 10° E visible
